www.pogodaiklimat.ru

Погода и климат >> Архив погоды >> Канада >> Нью-Брансуик >> Сент-Джон


ПОГОДА в Сент-Джоне

  • Прогноз погоды в Сент-Джоне
  • Монитор погоды в Сент-Джоне

АРХИВ ПОГОДЫ в Сент-Джоне

Время (UTC), дата Ветер
(напр.,м/с)
 
Видим.   Явления Облачность Т
(С)
Тd
(С)
f
(%)
Тe
(С)
Тes
(С)
Комфортность P
(гПа)
Po
(гПа)
Тmin
(С)
Tmax
(С)
R
(мм)
R24
(мм)
S
(см)
12 15.05 С 7 4800 м слаб. морось {дождь} 10/10 100 м
[Frnb]
+3.7 +3.4 98 -3 -3 1002.9 989.6 +1.9 +7.8 2
15 15.05 С 6 24 км 10/10 300 м
[]
+5.7 +4.0 89 +1 +1 1002.4 989.1
18 15.05 С 5 4800 м слаб. морось 10/10 100 м
[Frnb]
+5.7 +5.2 97 +1 +1 1002.6 989.3 +1.9 +6.5 0.2
21 15.05 С 6 4800 м 10/10 100 м
[]
+5.4 +4.9 97 0 0 1002.8 989.5
00 16.05 С 6 8000 м слаб. морось 10/10 200 м
[Sc]
+3.4 +2.9 97 -3 -3 1004.3 991.0 +2.2 +6.5 0.8
03 16.05 С 6 8000 м 10/10 200 м
[]
+2.6 +2.1 97 -4 -4 1004.7 991.4
06 16.05 СЗ 4 6000 м дымка 10/10 200 м
[Cu Sc]
+2.4 +2.0 97 -3 -3 1005.3 992.0 +2.2 +6.5 0.2 140
09 16.05 СЗ 4 8000 м 10/10 100 м
[]
+2.6 +2.4 99 -2 -2 1006.3 993.0
12 16.05 СЗ 6 16 км {морось} 10/10 300 м
[Sc]
+4.4 +3.0 91 -1 -1 1008.0 994.7 +2.3 +6.5 0.2
15 16.05 СЗ 4 24 км 9/9 600 м
[]
+6.8 +2.8 76 +3 +4 1008.9 995.6
18 16.05 З 3 24 км 10/10 600 м
[Sc]
+9.2 +3.6 68 +7 +7 1009.3 996.0 +2.3 +9.2
21 16.05 ЮЗ 5 16 км 10/10 600 м
[]
+6.5 +5.9 96 +2 +2 1010.2 996.8
00 17.05 Ю 3 24 км слаб. дождь 9/5 300 м
[Sc Ac As]
+5.4 +4.8 96 +2 +2 1011.3 997.9 +2.3 +9.6 2
03 17.05 ЮЗ 2 24 км 10/10 600 м
[]
+5.2 +5.1 99 +3 +3 1012.2 998.9
06 17.05 ЮЗ 1 24 км {дождь} 10/8 50 м
[Sc Ac As]
+5.0 +5.0 100 +3 +3 1011.5 998.2 +2.3 +9.6 0.0
09 17.05 ЮВ 2 800 м н/о +4.7 +4.7 100 +2 +2 1011.3 998.0
12 17.05 Ю 1 3200 м дымка 10/10 50 м
[Frnb]
+6.1 +5.9 99 +5 +5 1012.7 999.3 +4.5 +9.6
15 17.05 ЮЗ 1 16 км 9/9 600 м
[]
+10.2 +5.4 72 +10 +12 1012.6 999.3
18 17.05 Ю 4 24 км 9/9 600 м
[Cu Sc]
+9.9 +4.4 69 +8 +9 1011.8 998.5 +4.5 +12.4
21 17.05 Ю 5 24 км 9/9 600 м
[]
+10.3 +6.3 76 +7 +8 1010.7 997.4
00 18.05 ЮВ 3 3200 м слаб. морось {дождь} 10/10 200 м
[St]
+7.2 +7.1 99 +4 +4 1010.1 996.8 +4.5 +12.4 0.2
03 18.05 В 4 4800 м 10/10 50 м
[]
+7.0 +7.0 100 +3 +3 1007.6 994.4
06 18.05 В 2 4800 м слаб. дождь {морось} 10/10 100 м
[St]
+7.3 +7.1 99 +5 +5 1005.3 992.1 +4.5 +12.4 2 61
09 18.05 С 3 6000 м 10/10 100 м
[]
+7.3 +7.2 99 +4 +4 1004.1 990.9
12 18.05 С 7 4800 м {дождь, морось} 10/10 100 м
[Frnb]
+6.3 +6.1 99 +1 +1 1007.5 994.2 +6.3 +12.4 0.4
15 18.05 С 10 16 км 9/9 600 м
[]
+7.5 +3.6 76 +2 +2 1010.3 997.0
18 18.05 24 км н/о +9.8 +3.9 67 +6 +6 1012.5 999.2 +6.0 +11.5
21 18.05 С 6 24 км 8/8 1000 м
[]
+12.3 +3.8 56 +10 +10 1013.8 1000.5
00 19.05 СЗ 1 24 км 8/5 1000 м
[Sc Ac As Ci fib]
+6.0 +3.8 86 +5 +5 1015.9 1002.5 +6.0 +12.8
03 19.05 СВ 1 24 км 5/5 1000 м
[]
+0.7 +0.6 99 -2 -2 1018.6 1005.1
06 19.05 ЮЗ 1 24 км 8/8 1000 м
[Sc]
+2.7 +2.4 98 +1 +1 1019.8 1006.4 -0.3 +12.8 151
09 19.05 СВ 1 24 км 9/9 1000 м
[]
+2.4 +2.2 99 0 0 1020.0 1006.6
12 19.05 Ю 1 24 км 10/0
[As trans Cs]
+7.3 +4.2 81 +6 +10 1021.0 1007.6 -0.3 +12.8
15 19.05 З 3 24 км 10/10 1000 м
[]
+13.8 +4.0 52 +13 +13 1020.7 1007.3
18 19.05 ЮЗ 5 24 км слаб. дождь 10/8 600 м
[Sc As op]
+10.7 +8.1 84 +8 +8 1020.3 1006.9 -0.3 +15.0 0.0
21 19.05 ЮЗ 3 24 км 10/10 600 м
[]
+9.2 +8.4 95 +7 +7 1020.8 1007.3
00 20.05 Ю 2 3200 м в посл. час ливневой дождь 10/10 50 м
[St]
+7.5 +7.5 100 +5 +5 1019.8 1006.4 +0.3 +15.0 0.8
03 20.05 ЮВ 4 8000 м 10/10 50 м
[]
+7.5 +7.1 97 +4 +4 1019.0 1005.7
06 20.05 ЮВ 5 12 км 10/10 300 м
[Sc]
+7.5 +6.6 94 +3 +3 1016.7 1003.4 +0.3 +15.0
09 20.05 ЮВ 6 3200 м 10/10 100 м
[]
+7.3 +7.3 100 +3 +3 1013.7 1000.4
12 20.05 В 6 3200 м слаб. дождь 10/10 50 м
[Frnb]
+8.1 +8.1 100 +4 +4 1009.8 996.5 +6.8 +15.0
15 20.05 ЮВ 4 4800 м 10/10 100 м
[]
+8.6 +8.6 100 +5 +5 1007.6 994.4
18 20.05 Ю 3 4800 м дымка {гроза, дождь} 10/10 100 м
[Frnb]
+11.5 +11.0 97 +10 +10 1006.9 993.7 +6.8 +11.7 15
21 20.05 0 800 м н/о +9.5 +9.5 100 1005.3 992.1
00 21.05 Ю 2 400 м туман {дождь} н/о +9.2 +9.2 100 +8 +8 1005.2 992.0 +6.9 +12.2 1
03 21.05 Ю 3 2400 м 10/10 100 м
[]
+9.4 +9.4 100 +7 +7 1003.5 990.3
06 21.05 С 1 800 м туман {ливн. осадки} н/о +8.8 +8.8 100 +9 +9 1002.3 989.2 +6.9 +12.2 6 101
09 21.05 С 2 400 м н/о +9.3 +9.3 100 +8 +8 1000.7 987.6
12 21.05 С 1 4800 м {ливн. осадки, туман} 10/10 50 м
[St]
+10.1 +10.1 100 +9 +9 999.5 986.4 +8.5 +12.2
15 21.05 СЗ 6 3200 м 10/10 100 м
[]
+9.9 +9.9 100 +6 +6 998.2 985.1
18 21.05 СЗ 5 8000 м слаб. ливневой дождь 10/10 100 м
[Frnb]
+10.0 +9.8 99 +7 +7 998.2 985.1 +8.5 +10.7 6
21 21.05 СЗ 8 16 км 10/10 300 м
[]
+8.7 +7.5 92 +4 +4 999.3 986.2
00 22.05 СЗ 11 24 км слаб. ливневой дождь 10/10 300 м
[Sc]
+4.6 +3.4 92 -2 -2 1002.0 988.8 +4.6 +10.9
03 22.05 С 11 6000 м 10/10 200 м
[]
+3.6 +2.8 94 -4 -4 1005.2 992.0
06 22.05 С 8 12 км {ливн. осадки} 10/10 300 м
[Sc]
+4.5 +2.9 89 -2 -2 1007.8 994.5 +3.6 +10.9 11
09 22.05 С 8 24 км 10/10 300 м
[]
+5.3 +3.3 87 -1 -1 1010.5 997.2

 

Местоположение метеостанции Сент-Джон (Нью-Брансуик, Канада): широта 45.33 долгота -65.88 высота над уровнем моря 109 м.

В архиве по умолчанию представлена погода в Сент-Джоне за последнюю неделю. Архивные данные за месяц целиком и за предыдущие месяцы, начиная с января 2011 года, Вы можете получить, выбрав интересующий диапазон дат из раскрывающегося списка и нажав кнопку "Ввод!".


*Определитесь, кто Вы:
робот инопланетянин человек

Внимание! Время в таблицах - всемирное. Для получения местного времени необходимо прибавить поправку, которая равна -4 ч.

Смотрите также архив погоды в соседних городах и на ближайших метеорологических станциях:

Погода на Пойнт Лепре (Нью-Брансуик, Канада) (53 км)
Погода в Меканик Сетлемент (Нью-Брансуик, Канада) (69 км)
Погода в Гейджтауне (Нью-Брансуик, Канада) (70 км)
Погода в Фунди Парк (Нью-Брансуик, Канада) (79 км)
Погода во Фредериктоне (Нью-Брансуик, Канада) (79 км)
Погода в Гринвуде (Новая Шотландия, Канада) (85 км)
Погода в Фредериктоне (Нью-Брансуик, Канада) (86 км)
Погода в Аэропорту Гранд-Менен (Нью-Брансуик, Канада) (99 км)
Погода в Кэмпси (Альберта, Канада) (100 км)
Погода в Сейнт Стивен (Нью-Брансуик, Канада) (108 км)

Пояснения к столбцам:

Ветер - указаны скорость ветра в м/с - средняя за 10 мин, порывы в срок и между сроками (в фигурных скобках) и направление, откуда дует ветер: С - северный, СВ - северо-восточный, В - восточный, ЮВ - юго-восточный, Ю - южный, ЮЗ - юго-западный, З - западный, СЗ - северо-западный.
Видимость - горизонтальная дальность видимости в метрах или километрах. При видимости от 1 до 10 км при отсутствии осадков обычно наблюдается дымка, при ухудшении видимости до 1 км и менее - туман. В сухую погоду видимость может ухудшаться дымом, пылью или мглою.
Явления - указаны атмосферные явления, наблюдавшиеся в срок или в последний час перед сроком; фигурными скобками обозначены явления, наблюдавшиеся между сроками (за 1-3 часа до срока); квадратными скобками обозначены град или гололедные отложения с указанием их диаметра в мм.
Облачность - указаны через наклонную черту общая и нижняя облачность в баллах и высота нижней границы облаков в метрах; квадратными скобками обозначены формы облаков: Ci - перистые, Cs - перисто-слоистые, Cc - перисто-кучевые, Ac - высококучевые, As - высокослоистые, Sc - слоисто-кучевые, Ns - слоисто-дождевые, Cu - кучевые, Cb - кучево-дождевые. Подробнее классификацию облаков см. в Атласе облаков (PDF).
T - Температура воздуха - температура, измеренная на высоте 2 м над землей.
Td - Температура точки росы - температура, при понижении до которой содержащийся в воздухе водяной пар достигнет насыщения.
f - Относительная влажность воздуха - влажноcть воздуха, измеренная на высоте 2 м над землей.
Te - Эффективная температура - температура, которую ощущает одетый по сезону человек в тени. Характеристика душности погоды. При расчете учитывается влияние влажности воздуха и скорости ветра на теплоощущения человека.
Tes - Эффективная температура на солнце - температура, которую ощущает человек, с поправкой на солнечный нагрев. Характеристика знойности погоды. Зависит от высоты солнца над горизонтом, облачности и скорости ветра. Ночью, в пасмурную погоду, а также при ветре 12 м/с и более поправка равна нулю.
P - Атмосферное давление - приведенное к уровню моря атмосферное давление.
Po - Атмосферное давление - измеренное на уровне метеостанции атмосферное давление.
Tmin - Минимальная температура - минимум температуры воздуха на высоте 2 м над землей.
Tmax - Максимальная температура - максимум температуры воздуха на высоте 2 м над землей.
R - Количество осадков - Количество выпавших осадков за период времени, мм. При наведении курсора мыши на число - период времени, за который выпало указанное количество осадков.
R24 - Количество осадков - Количество выпавших осадков за 24 часа, мм.
S - Снежный покров - Высота снежного покрова, см. При наведении курсора мыши на число - состояние снежного покрова и степень покрытия местности в баллах.